This is the latest recevied weather packets stored in our database for station/object KE8WMS. If no packets are shown the sender has not sent any weather packets the latest 10 day(s).
| Time | Temp. | Humidity | Pressure | Rain* | Wind** | Luminosity | Snow |
|---|---|---|---|---|---|---|---|
| 1787428641 | 25.56° C | 81% | 1005.7 hPa | 0 mm | - | 570 W/m² | - |
| 1787428336 | 25° C | 83% | 1005.7 hPa | 0 mm | - | 285 W/m² | - |
| 1787428036 | 25° C | 83% | 1005.7 hPa | 0 mm | - | 309 W/m² | - |
| 1787427731 | 25° C | 83% | 1005.7 hPa | 0 mm | - | 271 W/m² | - |
| 1787427427 | 25° C | 84% | 1005.7 hPa | 0 mm | - | 268 W/m² | - |
| 1787427123 | 25.56° C | 84% | 1005.8 hPa | 0 mm | - | 289 W/m² | - |
| 1787426818 | 25.56° C | 83% | 1005.8 hPa | 0 mm | - | 309 W/m² | - |
| 1787426513 | 25° C | 88% | 1006.1 hPa | 0 mm | - | 393 W/m² | - |
| 1787426210 | 25° C | 88% | 1005.9 hPa | 0 mm | - | 605 W/m² | - |
| 1787425906 | 24.44° C | 83% | 1005.8 hPa | 0 mm | - | 152 W/m² | - |
| 1787425603 | 25° C | 84% | 1005.6 hPa | 0 mm | - | 248 W/m² | - |
| 1787425297 | 25° C | 87% | 1005.6 hPa | 0 mm | - | 200 W/m² | - |
| 1787424992 | 25° C | 87% | 1005.6 hPa | 0 mm | - | 188 W/m² | - |
| 1787424691 | 25° C | 85% | 1005.7 hPa | 0 mm | - | 563 W/m² | - |
| 1787424387 | 25° C | 87% | 1005.7 hPa | 0 mm | - | 289 W/m² | - |
| 1787424087 | 25° C | 87% | 1005.7 hPa | 0 mm | - | 395 W/m² | - |
| 1787423783 | 24.44° C | 86% | 1005.9 hPa | 0 mm | - | 825 W/m² | - |
| 1787423480 | 24.44° C | 88% | 1006 hPa | 0 mm | - | 405 W/m² | - |
| 1787423175 | 24.44° C | 87% | 1006.3 hPa | 0 mm | - | 283 W/m² | - |
| 1787422871 | 24.44° C | 82% | 1006.1 hPa | 0 mm | - | 316 W/m² | - |
| 1787422567 | 24.44° C | 84% | 1006.2 hPa | 0 mm | - | 431 W/m² | - |
| 1787422262 | 23.89° C | 91% | 1006.1 hPa | 0 mm | - | 821 W/m² | - |
| 1787421959 | 22.78° C | 95% | 1006 hPa | 0 mm | - | 867 W/m² | - |
| 1787421655 | 21.67° C | 96% | 1006.1 hPa | 0 mm | - | 911 W/m² | - |
| 1787421349 | 20.56° C | 96% | 1006.3 hPa | 0 mm | - | 458 W/m² | - |
* Rain latest hour (hover to see other rain measurements)
** Current wind speed in m/s (hover to see current wind gust speed)